Weather History for Dalton, GA

Change the Weather History Date:

Monday, January 21, 2013

  Actual Average Record
Temperature  
Mean Temperature 39 °F -  
Max Temperature 50 °F 47 °F 77 °F (1999)
Min Temperature 28 °F 28 °F -10 °F (1985)
Degree Days  
Heating Degree Days 26    
Moisture  
Dew Point 26 °F    
Average Humidity 70    
Maximum Humidity 100    
Minimum Humidity 35    
Precipitation  
Precipitation 0.00 in - - ()
Sea Level Pressure  
Sea Level Pressure 30.16 in    
Wind  
Wind Speed 3 mph (NNW)    
Max Wind Speed 15 mph    
Max Gust Speed 22 mph    
Visibility 10 miles    
Events      
Averages and records for this station are not official NWS values.
T = Trace of Precipitation, MM = Missing Value Source: NWS Daily Summary

Daily Weather History Graph

Daily Weather History Graph

Search for Another Location

Airport:

Trip Planner

Search our weather history database for the weather conditions in past years. The results will help you decide how hot, cold, wet, or windy it might be!

Date:

Astronomy

Jan. 21, 2013 Rise Set
Actual Time 7:44 AM EST 5:57 PM EST
Civil Twilight 7:17 AM EST 6:25 PM EST
Nautical Twilight 6:46 AM EST 6:55 PM EST
Astronomical Twilight 6:16 AM EST 7:25 PM EST
Moon 1:38 PM EST (1/21) 3:11 AM EST (1/21)
Length of Visible Light 11h 07m
Length of Day
10h 13m
Waxing Gibbous, 75% of the Moon is Illuminated
Jan 21
Waxing Gibbous
Jan 26
Full
Feb 3
Last Quarter
Feb 10
New
Feb 17
First Quarter

Hourly Weather History & Observations

Time (EST) Temp. Windchill Dew Point Humidity Pressure Visibility Wind Dir Wind Speed Gust Speed Precip Events Conditions
12:15 AM 32.0 °F - 32.0 °F 100% 30.14 in 10.0 mi Calm Calm - N/A   Clear
12:35 AM 32.0 °F - 32.0 °F 100% 30.14 in 10.0 mi Calm Calm - N/A   Scattered Clouds
12:55 AM 32.0 °F - 32.0 °F 100% 30.13 in 10.0 mi Calm Calm - N/A   Scattered Clouds
1:15 AM 32.0 °F - 32.0 °F 100% 30.13 in 10.0 mi Calm Calm - N/A   Scattered Clouds
1:35 AM 32.0 °F - 32.0 °F 100% 30.13 in 10.0 mi Calm Calm - N/A   Clear
1:55 AM 32.0 °F - 32.0 °F 100% 30.14 in 10.0 mi Calm Calm - N/A   Clear
2:15 AM 32.0 °F - 32.0 °F 100% 30.14 in 10.0 mi Calm Calm - N/A   Clear
2:35 AM 30.2 °F - 30.2 °F 100% 30.14 in 10.0 mi Calm Calm - N/A   Clear
2:55 AM 32.0 °F - 32.0 °F 100% 30.14 in 10.0 mi Calm Calm - N/A   Clear
3:15 AM 30.2 °F - 30.2 °F 100% 30.13 in 10.0 mi Calm Calm - N/A   Clear
3:35 AM 30.2 °F - 30.2 °F 100% 30.13 in 10.0 mi Calm Calm - N/A   Clear
3:55 AM 30.2 °F - 30.2 °F 100% 30.12 in 10.0 mi Calm Calm - N/A   Clear
4:15 AM 32.0 °F - 32.0 °F 100% 30.12 in 10.0 mi Calm Calm - N/A   Scattered Clouds
4:35 AM 30.2 °F - 30.2 °F 100% 30.11 in 10.0 mi Calm Calm - N/A   Clear
4:55 AM 30.2 °F - 30.2 °F 100% 30.11 in 10.0 mi Calm Calm - N/A   Clear
5:15 AM 30.2 °F - 30.2 °F 100% 30.10 in 10.0 mi Calm Calm - N/A   Clear
5:55 AM 28.4 °F - 28.4 °F 100% 30.11 in 10.0 mi Calm Calm - N/A   Clear
6:15 AM 28.4 °F - 28.4 °F 100% 30.12 in 10.0 mi Calm Calm - N/A   Clear
6:35 AM 30.2 °F - 30.2 °F 100% 30.12 in 7.0 mi Calm Calm - N/A   Clear
6:55 AM 28.4 °F - 28.4 °F 100% 30.12 in 10.0 mi Calm Calm - N/A   Clear
7:15 AM 28.4 °F - 28.4 °F 100% 30.13 in 10.0 mi Calm Calm - N/A   Clear
7:35 AM 28.4 °F - 28.4 °F 100% 30.14 in 7.0 mi Calm Calm - N/A   Clear
7:55 AM 28.4 °F - 28.4 °F 100% 30.14 in 10.0 mi Calm Calm - N/A   Clear
8:15 AM 28.4 °F - 28.4 °F 100% 30.15 in 10.0 mi Calm Calm - N/A   Clear
8:35 AM 30.2 °F - 30.2 °F 100% 30.16 in 10.0 mi Calm Calm - N/A   Clear
8:55 AM 30.2 °F - 30.2 °F 100% 30.17 in 10.0 mi Calm Calm - N/A   Clear
9:15 AM 32.0 °F - 32.0 °F 100% 30.17 in 10.0 mi Calm Calm - N/A   Clear
9:35 AM 33.8 °F 30.8 °F 33.8 °F 100% 30.16 in 10.0 mi NNW 3.5 mph - N/A   Clear
9:55 AM 35.6 °F 30.7 °F 33.8 °F 93% 30.17 in 10.0 mi North 5.8 mph - N/A   Clear
10:15 AM 41.0 °F 35.8 °F 33.8 °F 76% 30.18 in 10.0 mi North 8.1 mph - N/A   Clear
10:35 AM 42.8 °F 38.6 °F 33.8 °F 70% 30.19 in 10.0 mi North 6.9 mph - N/A   Clear
10:55 AM 44.6 °F 39.2 °F 32.0 °F 61% 30.19 in 10.0 mi NNW 10.4 mph - N/A   Clear
11:15 AM 46.4 °F 40.4 °F 32.0 °F 57% 30.18 in 10.0 mi NNW 13.8 mph - N/A   Clear
11:35 AM 46.4 °F 40.1 °F 30.2 °F 53% 30.17 in 10.0 mi NW 15.0 mph - N/A   Clear
11:55 AM 46.4 °F 40.4 °F 30.2 °F 53% 30.17 in 10.0 mi North 13.8 mph 17.3 mph N/A   Clear
12:15 PM 46.4 °F 40.7 °F 28.4 °F 50% 30.17 in 10.0 mi NNW 12.7 mph 17.3 mph N/A   Clear
12:35 PM 46.4 °F 40.1 °F 26.6 °F 46% 30.16 in 10.0 mi NW 15.0 mph 21.9 mph N/A   Clear
12:55 PM 46.4 °F 40.1 °F 26.6 °F 46% 30.16 in 10.0 mi NW 15.0 mph 20.7 mph N/A   Clear
1:15 PM 46.4 °F 42.4 °F 24.8 °F 43% 30.15 in 10.0 mi North 8.1 mph - N/A   Clear
1:35 PM 48.2 °F - 23.0 °F 37% 30.15 in 10.0 mi North 15.0 mph 19.6 mph N/A   Clear
1:55 PM 48.2 °F - 23.0 °F 37% 30.14 in 10.0 mi North 12.7 mph 16.1 mph N/A   Clear
2:15 PM 48.2 °F - 23.0 °F 37% 30.15 in 10.0 mi North 10.4 mph 19.6 mph N/A   Clear
2:35 PM 50.0 °F - 24.8 °F 37% 30.15 in 10.0 mi NNW 10.4 mph 18.4 mph N/A   Clear
2:55 PM 48.2 °F - 23.0 °F 37% 30.14 in 10.0 mi NW 3.5 mph 16.1 mph N/A   Clear
3:15 PM 50.0 °F - 23.0 °F 35% 30.14 in 10.0 mi NW 4.6 mph - N/A   Clear
3:35 PM 50.0 °F - 24.8 °F 37% 30.14 in 10.0 mi NW 9.2 mph - N/A   Clear
3:55 PM 50.0 °F - 24.8 °F 37% 30.14 in 10.0 mi NW 10.4 mph - N/A   Clear
4:15 PM 50.0 °F - 23.0 °F 35% 30.14 in 10.0 mi NW 12.7 mph - N/A   Clear
4:35 PM 48.2 °F - 23.0 °F 37% 30.15 in 10.0 mi NNW 9.2 mph - N/A   Clear
4:55 PM 48.2 °F - 23.0 °F 37% 30.15 in 10.0 mi NNW 11.5 mph 16.1 mph N/A   Clear
5:15 PM 46.4 °F 41.9 °F 21.2 °F 37% 30.15 in 10.0 mi NW 9.2 mph - N/A   Clear
5:35 PM 44.6 °F 40.7 °F 21.2 °F 39% 30.15 in 10.0 mi NW 6.9 mph - N/A   Clear
5:55 PM 44.6 °F 40.7 °F 21.2 °F 39% 30.16 in 10.0 mi NW 6.9 mph - N/A   Clear
6:15 PM 42.8 °F 39.3 °F 21.2 °F 42% 30.16 in 10.0 mi West 5.8 mph - N/A   Clear
6:35 PM 42.8 °F 39.3 °F 19.4 °F 39% 30.17 in 10.0 mi WNW 5.8 mph - N/A   Clear
6:55 PM 41.0 °F 36.4 °F 19.4 °F 42% 30.18 in 10.0 mi WNW 6.9 mph - N/A   Clear
7:15 PM 41.0 °F 36.4 °F 19.4 °F 42% 30.19 in 10.0 mi NW 6.9 mph - N/A   Clear
7:35 PM 37.4 °F 31.4 °F 21.2 °F 52% 30.19 in 10.0 mi NW 8.1 mph - N/A   Clear
7:55 PM 37.4 °F 32.1 °F 21.2 °F 52% 30.19 in 10.0 mi NW 6.9 mph - N/A   Clear
8:15 PM 35.6 °F 29.9 °F 21.2 °F 56% 30.19 in 10.0 mi NNW 6.9 mph - N/A   Clear
8:35 PM 33.8 °F 27.7 °F 21.2 °F 60% 30.20 in 10.0 mi NNW 6.9 mph - N/A   Clear
8:55 PM 33.8 °F 27.7 °F 21.2 °F 60% 30.20 in 10.0 mi NNW 6.9 mph - N/A   Clear
9:15 PM 33.8 °F 28.6 °F 21.2 °F 60% 30.21 in 10.0 mi NW 5.8 mph - N/A   Clear
9:35 PM 33.8 °F 29.6 °F 21.2 °F 60% 30.21 in 10.0 mi NW 4.6 mph - N/A   Clear
9:55 PM 32.0 °F 27.5 °F 21.2 °F 64% 30.21 in 10.0 mi NNW 4.6 mph - N/A   Clear
10:15 PM 32.0 °F 27.5 °F 21.2 °F 64% 30.21 in 10.0 mi NNW 4.6 mph - N/A   Clear
10:35 PM 32.0 °F 28.7 °F 21.2 °F 64% 30.22 in 10.0 mi NNW 3.5 mph - N/A   Clear
10:55 PM 32.0 °F 26.4 °F 21.2 °F 64% 30.22 in 10.0 mi NNW 5.8 mph - N/A   Clear
11:15 PM 32.0 °F 26.4 °F 21.2 °F 64% 30.22 in 10.0 mi NNW 5.8 mph - N/A   Clear
11:35 PM 32.0 °F 25.6 °F 19.4 °F 60% 30.22 in 10.0 mi NNW 6.9 mph - N/A   Clear
11:55 PM 32.0 °F 25.6 °F 19.4 °F 60% 30.22 in 10.0 mi NNW 6.9 mph - N/A   Clear